This is the latest recevied weather packets stored in our database for station/object 9M8ZAL-13. If no packets are shown the sender has not sent any weather packets the latest 10 day(s).
| Time | Temp. | Humidity | Pressure | Rain* | Wind** | Luminosity | Snow |
|---|---|---|---|---|---|---|---|
| 1777142937 | 29.44° C | - | 1007.6 hPa | - | - | 1000 W/m² | - |
| 1777142336 | 28.89° C | - | 1007.6 hPa | - | - | 1000 W/m² | - |
| 1777141736 | 28.89° C | - | 1007.6 hPa | - | - | 1000 W/m² | - |
| 1777141136 | 28.89° C | - | 1007.7 hPa | - | - | 1000 W/m² | - |
| 1777140536 | 28.33° C | - | 1007.6 hPa | - | - | 1000 W/m² | - |
| 1777139936 | 28.33° C | - | 1007.5 hPa | - | - | 1000 W/m² | - |
| 1777139336 | 28.33° C | - | 1007.8 hPa | - | - | 1000 W/m² | - |
| 1777138736 | 28.89° C | - | 1007.8 hPa | - | - | 1000 W/m² | - |
| 1777138136 | 28.89° C | - | 1008.1 hPa | - | - | 1000 W/m² | - |
| 1777137536 | 28.89° C | - | 1008.1 hPa | - | - | 1000 W/m² | - |
| 1777136936 | 28.89° C | - | 1008.2 hPa | - | - | 1000 W/m² | - |
| 1777136336 | 28.89° C | - | 1008.6 hPa | - | - | 1000 W/m² | - |
| 1777135736 | 28.89° C | - | 1008.6 hPa | - | - | 1000 W/m² | - |
| 1777135136 | 29.44° C | - | 1008.5 hPa | - | - | 1000 W/m² | - |
| 1777134537 | 30° C | - | 1008.4 hPa | - | - | 1000 W/m² | - |
| 1777133936 | 30° C | - | 1008.6 hPa | - | - | 1000 W/m² | - |
| 1777133336 | 30° C | - | 1008.7 hPa | - | - | 1000 W/m² | - |
| 1777132736 | 29.44° C | - | 1008.8 hPa | - | - | 1000 W/m² | - |
| 1777132136 | 30° C | - | 1009 hPa | - | - | 1000 W/m² | - |
| 1777131536 | 30° C | - | 1009.2 hPa | - | - | 1000 W/m² | - |
| 1777130936 | 30° C | - | 1009.2 hPa | - | - | 1000 W/m² | - |
| 1777130336 | 30° C | - | 1009.4 hPa | - | - | 1000 W/m² | - |
| 1777129736 | 30° C | - | 1009.2 hPa | - | - | 1000 W/m² | - |
| 1777129136 | 30° C | - | 1009.4 hPa | - | - | 1000 W/m² | - |
| 1777128536 | 30° C | - | 1009.3 hPa | - | - | 1000 W/m² | - |
* Rain since midnight (hover to see other rain measurements)
** Current wind speed in m/s (hover to see current wind gust speed)